Weather reports worldwide

Advertisment
Santander/Parayas, Spain (8021): temperature & dewpoint: 17.10.2019 05:00:00 - 23.10.2019 05:00:00 (CEST)Santander/Parayas, Spain (8021): wind speed: 17.10.2019 05:00:00 - 23.10.2019 05:00:00 (CEST)Santander/Parayas, Spain (8021): wind direction: 17.10.2019 05:00:00 - 23.10.2019 05:00:00 (CEST)Santander/Parayas, Spain (8021): reduced air pressure: 17.10.2019 05:00:00 - 23.10.2019 05:00:00 (CEST)Santander/Parayas, Spain (8021): visibility: 17.10.2019 05:00:00 - 23.10.2019 05:00:00 (CEST)
Date & Time tt [°C] td [°C] ff [km/h] ff [kn] dd ppp [hPa] vv [km]
23.10.2019 05:00:00 15,1 14,9 21 11 NNW 1007,7 -
23.10.2019 04:00:00 14,8 14,8 21 11 NNW 1008,7 -
23.10.2019 03:00:00 14,1 13,9 13 7 NW 1010,3 -
23.10.2019 02:00:00 13,8 13,6 13 7 NNW 1010,3 -
23.10.2019 01:00:00 12,8 12,5 5 3 W 1012,5 -
23.10.2019 00:00:00 12,5 12,2 8 4 WSW 1012,9 -
22.10.2019 23:00:00 12,4 12,1 15 8 W 1013,1 6
22.10.2019 22:00:00 12,4 12,1 8 4 SW 1013,9 -
22.10.2019 21:00:00 12,4 11,9 0 0 N 1014,8 -
22.10.2019 20:00:00 12,7 12,1 11 6 E 1015,2 8
22.10.2019 19:00:00 13,4 12,9 4 2 SSE 1015,6 -
22.10.2019 18:00:00 13,6 13,0 4 2 W 1015,9 -
22.10.2019 17:00:00 13,6 12,8 8 4 SW 1016,6 6
22.10.2019 16:00:00 13,4 12,5 8 4 SW 1017,5 -
22.10.2019 15:00:00 12,8 11,7 8 4 SSW 1017,9 -
22.10.2019 14:00:00 12,9 11,5 4 2 SSW 1018,9 9
22.10.2019 13:00:00 12,7 10,6 8 4 SSW 1019,8 -
22.10.2019 12:00:00 12,2 10,3 4 2 SW 1020,2 -
22.10.2019 11:00:00 11,0 10,1 8 4 SSW 1020,5 25
22.10.2019 10:00:00 8,8 8,7 4 2 W 1020,8 -
22.10.2019 09:00:00 6,0 5,7 0 0 N 1020,1 -
22.10.2019 08:00:00 6,6 6,3 0 0 N 1020,4 10
22.10.2019 07:00:00 - - - - - - -
22.10.2019 06:00:00 - - - - - - -
22.10.2019 05:00:00 - - - - - - -
22.10.2019 04:00:00 - - - - - - -
22.10.2019 03:00:00 - - - - - - -
22.10.2019 02:00:00 - - - - - - -
22.10.2019 01:00:00 - - - - - - -
22.10.2019 00:00:00 - - - - - - -
21.10.2019 23:00:00 - - - - - - 25
21.10.2019 22:00:00 11,3 9,6 0 0 N 1020,7 -
21.10.2019 21:00:00 12,1 10,0 8 4 S 1020,4 -
21.10.2019 20:00:00 14,2 10,0 4 2 SSE 1019,9 30
21.10.2019 19:00:00 15,4 10,0 9 5 N 1019,3 -
21.10.2019 18:00:00 17,3 9,5 8 4 NE 1019,0 -
21.10.2019 17:00:00 17,7 9,3 5 3 NNW 1018,8 35
21.10.2019 16:00:00 17,5 9,6 9 5 WNW 1018,9 -
21.10.2019 15:00:00 17,4 10,2 13 7 NW 1019,0 -
21.10.2019 14:00:00 17,2 10,3 11 6 W 1019,2 30
21.10.2019 13:00:00 17,3 10,8 15 8 W 1019,4 -
21.10.2019 12:00:00 16,6 9,8 13 7 SW 1019,3 -
21.10.2019 11:00:00 14,4 9,4 13 7 SSW 1019,1 25
21.10.2019 10:00:00 11,6 8,3 11 6 SSW 1018,7 -
21.10.2019 09:00:00 10,8 8,4 5 3 SW 1018,0 -
21.10.2019 08:00:00 11,2 8,0 18 10 SSW 1017,6 20
21.10.2019 07:00:00 10,7 7,9 15 8 SSW 1017,3 -
21.10.2019 06:00:00 10,6 8,2 9 5 S 1016,9 -
21.10.2019 05:00:00 10,9 8,3 5 3 SE 1016,9 -
21.10.2019 04:00:00 11,0 8,2 13 7 SSW 1016,8 -
21.10.2019 03:00:00 10,7 8,1 13 7 SSW 1016,7 -
21.10.2019 02:00:00 10,6 8,2 13 7 SSW 1016,1 -
21.10.2019 01:00:00 10,9 8,6 15 8 SSW 1016,1 -
21.10.2019 00:00:00 11,0 8,9 11 6 SW 1016,1 -
20.10.2019 23:00:00 11,6 9,3 15 8 SW 1016,0 15
20.10.2019 22:00:00 11,3 9,9 18 10 SSW 1014,7 -
20.10.2019 21:00:00 11,4 10,1 15 8 SSW 1014,3 -
20.10.2019 20:00:00 12,1 10,2 16 9 SW 1013,7 25
20.10.2019 19:00:00 12,0 10,7 15 8 SW 1012,5 -
20.10.2019 18:00:00 11,9 11,0 8 4 SSW 1012,3 -
20.10.2019 17:00:00 11,8 10,9 22 12 SSW 1011,6 15
20.10.2019 16:00:00 11,9 10,8 15 8 SSW 1011,1 -
20.10.2019 15:00:00 12,2 10,8 13 7 SW 1010,6 -
20.10.2019 14:00:00 12,5 11,2 16 9 SW 1010,4 20
20.10.2019 13:00:00 12,0 11,1 15 8 SSW 1010,4 -
20.10.2019 12:00:00 12,0 10,9 11 6 SW 1010,2 -
20.10.2019 11:00:00 11,3 10,2 11 6 SW 1009,7 -
20.10.2019 10:00:00 11,0 10,2 22 12 WSW 1008,9 -
20.10.2019 09:00:00 11,8 11,6 11 6 WSW 1007,9 -
20.10.2019 08:00:00 11,7 11,2 9 5 W 1007,2 10
20.10.2019 07:00:00 12,1 11,5 15 8 WNW 1006,1 -
20.10.2019 06:00:00 13,6 12,3 11 6 N 1005,0 -
20.10.2019 05:00:00 13,6 12,5 8 4 N 1004,4 -
20.10.2019 04:00:00 13,1 12,8 5 3 N 1004,3 -
20.10.2019 03:00:00 12,8 12,8 4 2 SW 1004,3 -
20.10.2019 02:00:00 12,9 12,7 9 5 SW 1004,4 -
20.10.2019 01:00:00 13,2 13,0 5 3 WNW 1004,5 -
20.10.2019 00:00:00 12,9 12,7 8 4 SW 1004,4 -
19.10.2019 23:00:00 13,4 13,2 5 3 SSW 1004,5 -
19.10.2019 22:00:00 13,8 13,5 8 4 WSW 1004,4 -
19.10.2019 21:00:00 13,9 13,6 8 4 S 1004,7 -
19.10.2019 20:00:00 14,0 13,4 4 2 W 1004,8 4,0
19.10.2019 19:00:00 14,2 13,6 13 7 NNW 1003,9 -
19.10.2019 18:00:00 15,4 14,6 5 3 WNW 1004,0 -
19.10.2019 17:00:00 15,4 14,4 5 3 N 1004,3 8
19.10.2019 16:00:00 15,9 14,8 9 5 NNW 1004,2 -
19.10.2019 15:00:00 15,8 14,8 11 6 NNW 1005,0 -
19.10.2019 14:00:00 16,2 15,2 9 5 NNW 1006,1 9
19.10.2019 13:00:00 16,6 15,6 8 4 N 1006,2 -
19.10.2019 12:00:00 16,3 15,2 4 2 W 1006,9 -
19.10.2019 11:00:00 16,4 14,9 2 1 SW 1007,1 -
19.10.2019 10:00:00 15,5 14,5 2 1 WSW 1007,1 -
19.10.2019 09:00:00 14,7 13,7 9 5 SSW 1007,2 -
19.10.2019 08:00:00 14,1 13,0 4 2 WNW 1007,3 12
19.10.2019 07:00:00 14,5 13,2 8 4 WSW 1007,1 -
19.10.2019 06:00:00 13,9 13,4 9 5 W 1006,9 -
19.10.2019 05:00:00 14,0 13,2 0 0 N 1007,2 -
19.10.2019 04:00:00 14,2 13,2 4 2 S 1007,9 -
19.10.2019 03:00:00 14,2 13,4 5 3 W 1008,4 -
19.10.2019 02:00:00 14,1 13,3 4 2 WNW 1009,0 -
19.10.2019 01:00:00 14,6 13,3 5 3 SW 1009,6 -
19.10.2019 00:00:00 15,1 13,0 4 2 W 1010,1 -
18.10.2019 23:00:00 15,1 13,1 5 3 SSW 1010,3 25
18.10.2019 22:00:00 16,4 13,5 8 4 ENE 1010,7 -
18.10.2019 21:00:00 16,1 13,2 4 2 ESE 1011,3 -
18.10.2019 20:00:00 16,6 12,5 8 4 E 1011,6 25
18.10.2019 19:00:00 17,2 12,1 8 4 E 1012,3 -
18.10.2019 18:00:00 18,1 11,6 9 5 NE 1013,3 -
18.10.2019 17:00:00 18,7 10,6 11 6 NE 1013,5 30
18.10.2019 16:00:00 19,3 10,1 11 6 N 1013,8 -
18.10.2019 15:00:00 20,2 11,5 2 1 NNW 1014,6 -
18.10.2019 14:00:00 20,3 11,6 9 5 WSW 1015,3 30
18.10.2019 13:00:00 19,6 11,3 11 6 WSW 1015,9 -
18.10.2019 12:00:00 19,0 13,8 8 4 SW 1016,1 -
18.10.2019 11:00:00 16,7 14,2 8 4 SSW 1016,5 20
18.10.2019 10:00:00 16,0 13,5 9 5 SW 1016,5 -
18.10.2019 09:00:00 16,3 13,2 11 6 SSW 1016,1 -
18.10.2019 08:00:00 16,1 13,8 11 6 SSW 1015,7 25
18.10.2019 07:00:00 16,1 13,9 11 6 SSW 1015,5 -
18.10.2019 06:00:00 15,9 14,4 9 5 SSW 1015,1 -
18.10.2019 05:00:00 15,8 14,6 11 6 SSW 1014,9 -
18.10.2019 04:00:00 16,0 14,7 8 4 S 1015,0 -
18.10.2019 03:00:00 16,1 14,6 9 5 SSW 1015,0 -
18.10.2019 02:00:00 16,1 14,8 2 1 W 1014,9 -
18.10.2019 01:00:00 16,1 14,5 4 2 WSW 1014,7 -
18.10.2019 00:00:00 16,2 14,7 8 4 SSW 1015,2 -
17.10.2019 23:00:00 16,4 14,9 4 2 SSW 1015,3 20
17.10.2019 22:00:00 16,5 14,9 4 2 S 1015,1 -
17.10.2019 21:00:00 16,8 15,1 4 2 WSW 1015,1 -
17.10.2019 20:00:00 16,9 14,9 8 4 SSW 1015,0 20
17.10.2019 19:00:00 17,4 14,9 8 4 SSW 1015,0 -
17.10.2019 18:00:00 17,7 15,0 8 4 SW 1015,0 -
17.10.2019 17:00:00 17,7 15,0 13 7 WNW 1014,9 20
17.10.2019 16:00:00 17,7 15,1 11 6 NW 1014,8 -
17.10.2019 15:00:00 18,4 16,2 21 11 NW 1014,4 -
17.10.2019 14:00:00 21,3 16,9 18 10 N 1013,8 30
17.10.2019 13:00:00 21,1 16,9 13 7 NE 1013,3 -
17.10.2019 12:00:00 21,4 16,8 4 2 NE 1013,9 -
17.10.2019 11:00:00 20,5 17,3 0 0 N 1014,1 30
17.10.2019 10:00:00 16,8 15,5 5 3 SW 1014,3 -
17.10.2019 09:00:00 16,9 14,9 8 4 SW 1013,4 -
17.10.2019 08:00:00 16,9 12,7 11 6 SW 1012,2 20
17.10.2019 07:00:00 17,8 12,6 16 9 SSW 1011,0 -
17.10.2019 06:00:00 17,8 13,1 24 13 S 1010,9 -
17.10.2019 05:00:00 16,9 14,0 21 11 S 1011,5 -

tt = temperature
td = dewpoint
ff = wind speed
dd = wind direction
ppp = reduced air pressure
vv = visibility

Next stations